Terug naar catalogus

FLOCK 4BE 32

ActiefWetenschapSSO
NORAD 60497·PAYLOAD·🇺🇸 United States

Gelanceerd Aug 16, 2024 vanaf Vandenberg Space Force Base

Loading…

Volgende Passages (komende 24 uur)

TLE

VersSource: CelesTrak SupGP

Epoch: Sep 14, 2026, 14:44 UTC

1 60497C 24149AU  26257.61422454  .00048265  00000+0  10123-2 0  2576
2 60497  97.3668 342.6745 0002299 320.1563 226.3134 15.45379791    13

Volg FLOCK 4BE 32 in realtime met AllMySat

Download on the App Store